Weather History for Scappoose, OR

Change the Weather History Date:

Saturday, November 9, 2013

  Actual Average Record
Temperature  
Mean Temperature 44 °F -  
Max Temperature 49 °F - 61 °F (2003)
Min Temperature 38 °F - 28 °F (2001)
Degree Days  
Heating Degree Days 21    
Month to date heating degree days 152  
Since 1 July heating degree days 722  
Cooling Degree Days 0    
Month to date cooling degree days 0  
Year to date cooling degree days 396  
Moisture  
Dew Point 41 °F    
Average Humidity 93    
Maximum Humidity 100    
Minimum Humidity 86    
Precipitation  
Precipitation T in - 0.77 in (2010)
Month to date precipitation 1.96  
Year to date precipitation 24.47  
Sea Level Pressure  
Sea Level Pressure 30.09 in    
Wind  
Wind Speed 0 mph (NNW)    
Max Wind Speed 5 mph    
Max Gust Speed 7 mph    
Visibility 5 miles    
Events Fog    
T = Trace of Precipitation, MM = Missing Value Source: NWS Daily Summary

Daily Weather History Graph

Daily Weather History Graph

Search for Another Location

Airport:

Trip Planner

Search our weather history database for the weather conditions in past years. The results will help you decide how hot, cold, wet, or windy it might be!

Date:

Astronomy

Nov. 09, 2013 Rise Set
Actual Time 7:03 AM PST 4:46 PM PST
Civil Twilight 6:31 AM PST 5:18 PM PST
Nautical Twilight 5:55 AM PST 5:54 PM PST
Astronomical Twilight 5:20 AM PST 6:29 PM PST
Moon 12:40 PM PST (11/9) 11:28 PM PST (11/9)
Length of Visible Light 10h 46m
Length of Day
9h 43m
Waxing Crescent, 45% of the Moon is Illuminated
Nov 9
Waxing Crescent
Nov 9
First Quarter
Nov 17
Full
Nov 25
Last Quarter
Dec 2
New

Hourly Weather History & Observations

Time (PST) Temp. Windchill Dew Point Humidity Pressure Visibility Wind Dir Wind Speed Gust Speed Precip Events Conditions
12:04 AM 41.0 °F - 39.9 °F 96% 30.14 in 0.2 mi Calm Calm - N/A Fog Fog
12:26 AM 41.0 °F - 39.0 °F 93% 30.14 in 0.5 mi Calm Calm - N/A Fog Fog
12:29 AM 39.9 °F - 39.0 °F 97% 30.14 in 0.2 mi Calm Calm - N/A Fog Fog
12:48 AM 39.2 °F 37.0 °F 37.4 °F 93% 30.13 in 0.2 mi NW 3.5 mph - N/A Fog Fog
12:53 AM 39.9 °F 37.8 °F 39.0 °F 97% 30.14 in 0.2 mi NW 3.5 mph - N/A Fog Fog
12:58 AM 41.0 °F 39.0 °F 39.0 °F 93% 30.13 in 0.5 mi NW 3.5 mph - N/A Fog Fog
1:26 AM 41.0 °F - 39.9 °F 96% 30.13 in 0.2 mi Calm Calm - N/A Fog Fog
1:35 AM 41.0 °F - 39.9 °F 96% 30.13 in 0.5 mi Calm Calm - N/A Fog Fog
1:47 AM 41.0 °F - 39.2 °F 93% 30.12 in 1.2 mi Calm Calm - N/A   Scattered Clouds
1:53 AM 41.0 °F 39.0 °F 39.0 °F 93% 30.12 in 3.0 mi WNW 3.5 mph - N/A   Partly Cloudy
2:31 AM 41.0 °F 39.0 °F 39.0 °F 93% 30.12 in 1.8 mi North 3.5 mph - N/A   Partly Cloudy
2:35 AM 41.0 °F 39.0 °F 39.0 °F 93% 30.12 in 0.8 mi North 3.5 mph - N/A   Mist
2:53 AM 41.0 °F 39.0 °F 39.9 °F 96% 30.12 in 1.2 mi North 3.5 mph - N/A   Partly Cloudy
2:59 AM 41.0 °F 39.0 °F 39.9 °F 96% 30.12 in 3.0 mi North 3.5 mph - N/A   Partly Cloudy
3:29 AM 39.9 °F - 39.0 °F 97% 30.11 in 2.0 mi Calm Calm - N/A   Partly Cloudy
3:40 AM 39.0 °F - 37.9 °F 96% 30.11 in 1.0 mi Calm Calm - N/A   Mist
3:53 AM 39.0 °F - 37.9 °F 96% 30.11 in 0.5 mi Calm Calm - N/A Fog Fog
3:55 AM 39.0 °F - 37.9 °F 96% 30.11 in 0.2 mi Calm Calm - N/A Fog Fog
4:25 AM 39.0 °F 36.8 °F 37.9 °F 96% 30.10 in 0.5 mi WNW 3.5 mph - N/A Fog Fog
4:45 AM 39.0 °F - 37.9 °F 96% 30.10 in 1.2 mi Calm Calm - N/A   Scattered Clouds
4:53 AM 39.9 °F - 39.0 °F 97% 30.10 in 2.5 mi Calm Calm - N/A   Partly Cloudy
5:01 AM 39.9 °F 37.8 °F 37.9 °F 93% 30.10 in 3.0 mi NW 3.5 mph - N/A   Clear
5:16 AM 39.0 °F - 37.9 °F 96% 30.09 in 2.0 mi Calm Calm - N/A   Partly Cloudy
5:23 AM 39.0 °F - 37.0 °F 93% 30.09 in 0.8 mi Calm Calm - N/A   Clear
5:36 AM 39.0 °F - 37.9 °F 96% 30.09 in 1.8 mi Calm Calm - N/A   Clear
5:53 AM 39.0 °F 36.8 °F 37.9 °F 96% 30.09 in 3.0 mi WNW 3.5 mph - N/A   Clear
5:58 AM 39.0 °F 36.8 °F 37.9 °F 96% 30.09 in 1.8 mi WNW 3.5 mph - N/A   Clear
6:14 AM 39.0 °F 36.8 °F 37.9 °F 96% 30.09 in 3.0 mi WNW 3.5 mph - N/A   Clear
6:53 AM 39.9 °F - 37.9 °F 93% 30.08 in 9.0 mi Calm Calm - N/A   Clear
7:31 AM 39.0 °F - 37.9 °F 96% 30.09 in 1.8 mi Calm Calm - N/A   Clear
7:44 AM 39.0 °F - 37.0 °F 93% 30.09 in 1.8 mi Calm Calm - N/A   Partly Cloudy
7:50 AM 39.2 °F - 37.4 °F 93% 30.08 in 3.0 mi Calm Calm - N/A   Partly Cloudy
7:53 AM 39.0 °F - 37.9 °F 96% 30.09 in 4.0 mi Calm Calm - N/A   Partly Cloudy
8:53 AM 43.0 °F - 41.0 °F 93% 30.09 in 7.0 mi Calm Calm - N/A   Scattered Clouds
9:16 AM 43.0 °F - 42.1 °F 97% 30.10 in 4.0 mi Calm Calm - N/A   Mostly Cloudy
9:53 AM 44.1 °F - 42.1 °F 93% 30.09 in 7.0 mi Calm Calm - N/A   Overcast
10:33 AM 45.0 °F 43.5 °F 42.1 °F 90% 30.09 in 8.0 mi East 3.5 mph - N/A   Overcast
10:51 AM 46.4 °F - 42.8 °F 87% 30.10 in 8.0 mi Calm Calm - N/A   Overcast
10:53 AM 46.0 °F - 43.0 °F 89% 30.10 in 8.0 mi Calm Calm - N/A   Overcast
11:13 AM 46.0 °F - 43.0 °F 89% 30.09 in 9.0 mi Calm Calm - N/A   Overcast
11:23 AM 46.0 °F - 43.0 °F 89% 30.09 in 9.0 mi Calm Calm - N/A   Overcast
11:30 AM 46.9 °F - 43.0 °F 86% 30.09 in 10.0 mi Calm Calm - N/A   Overcast
11:53 AM 46.9 °F - 43.0 °F 86% 30.08 in 10.0 mi Calm Calm - N/A   Overcast
12:04 PM 46.9 °F - 43.0 °F 86% 30.08 in 10.0 mi Calm Calm - N/A   Overcast
12:15 PM 46.9 °F - 43.0 °F 86% 30.07 in 10.0 mi Calm Calm - N/A   Overcast
12:53 PM 46.9 °F - 43.0 °F 86% 30.07 in 10.0 mi Calm Calm - N/A   Overcast
1:53 PM 48.0 °F - 44.1 °F 86% 30.06 in 10.0 mi Calm Calm - 0.00 in   Overcast
2:29 PM 48.0 °F - 44.1 °F 86% 30.06 in 10.0 mi Calm Calm - N/A   Overcast
2:53 PM 48.9 °F - 44.1 °F 83% 30.06 in 10.0 mi Calm Calm - N/A   Overcast
3:07 PM 48.9 °F - 44.1 °F 83% 30.06 in 10.0 mi North 3.5 mph - N/A   Overcast
3:53 PM 48.9 °F - 44.1 °F 83% 30.06 in 9.0 mi Calm Calm - N/A   Overcast
4:06 PM 48.9 °F - 44.1 °F 83% 30.06 in 9.0 mi Calm Calm - N/A   Overcast
4:53 PM 48.0 °F - 44.1 °F 86% 30.06 in 9.0 mi Calm Calm - N/A   Overcast
5:53 PM 46.9 °F - 45.0 °F 93% 30.06 in 8.0 mi Calm Calm - N/A   Overcast
6:53 PM 46.9 °F - 44.1 °F 90% 30.06 in 6.0 mi Calm Calm - N/A   Overcast
7:53 PM 46.9 °F - 45.0 °F 93% 30.06 in 6.0 mi Calm Calm - N/A   Overcast
8:53 PM 46.9 °F - 45.0 °F 93% 30.06 in 8.0 mi Calm Calm - N/A   Overcast
9:53 PM 46.9 °F - 45.0 °F 93% 30.06 in 7.0 mi Calm Calm - N/A   Overcast
10:53 PM 46.9 °F - 45.0 °F 93% 30.06 in 8.0 mi Calm Calm - N/A   Overcast
11:53 PM 46.9 °F - 44.1 °F 90% 30.06 in 8.0 mi Calm Calm - N/A   Overcast